QPF
0.00 0.00 0.00 0.00 0.00 0.00 0.00 0.00 0.00 0.00 0.00 0.00 0.00 0.00 0.00 0.00 0.00 0.00 0.00 0.00 0.00 0.00 0.00 0.00 0.00 0.00 0.00 0.00 0.00 0.00 0.00 0.00 0.00 0.00 0.00 0.00 0.00 0.00 0.00 0.00 0.00 0.00 0.00 0.00
0.00 0.00 0.00 0.00 0.00 0.00 0.00 0.00 0.00 0.00 0.00 0.00 0.00 0.00 0.00 0.00 0.00 0.00 0.00 0.00 0.00 0.00 0.00 0.00 0.00 0.00 0.00 0.00 0.00 0.00 0.00 0.00 0.00 0.00 0.00 0.00 0.00 0.00 0.00 0.00 0.00 0.00 0.00 0.00
0.00 0.00 0.00 0.00 0.00 0.00 0.00 0.00 0.00 0.00 0.00 0.00 0.00 0.00 0.00 0.00 0.00 0.00 0.00 0.00 0.00 0.00 0.00 0.00 0.00 0.00 0.00 0.00 0.00 0.00 0.00 0.00 0.00 0.00 0.00 0.00 0.00 0.00 0.00 0.00 0.00 0.00 0.00 0.00
0.00 0.00 0.00 0.00 0.00 0.00 0.00 0.00 0.00 0.00 0.00 0.00 0.00 0.00 0.00 0.00 0.00 0.00 0.00 0.00 0.00 0.00 0.00 0.00 0.00 0.00 0.00 0.00 0.00 0.00 0.00 0.00 0.00 0.00 0.00 0.00 0.00 0.00 0.00 0.00 0.00 0.00 0.00 0.00
0.00 0.00 0.00 0.00 0.00 0.00 0.00 0.00 0.00 0.00 0.00 0.00 0.00 0.00 0.00 0.00 0.00 0.00 0.00 0.00 0.00 0.00 0.00 0.00 0.00 0.00 0.00 0.00 0.00 0.00 0.00 0.00 0.00 0.00 0.00 0.00 0.00 0.00 0.00 0.00 0.00 0.00 0.00 0.00
0.00 0.00 0.00 0.00 0.00 0.00 0.00 0.00 0.00 0.00 0.00 0.00 0.00 0.00 0.00 0.00 0.00 0.00 0.00 0.00 0.00 0.00 0.00 0.00 0.00 0.00 0.00 0.00 0.00 0.00 0.00 0.00 0.00 0.00 0.00 0.00 0.00 0.00 0.00 0.00 0.00 0.00 0.00 0.00
0.00 0.00 0.00 0.00 0.00 0.00 0.00 0.00 0.00 0.00 0.00 0.00 0.00 0.00 0.00 0.00 0.00 0.00 0.00 0.00 0.00 0.00 0.00 0.00 0.00 0.00 0.00 0.00 0.00 0.00 0.00 0.00 0.00 0.00 0.00 0.00 0.00 0.00 0.00 0.00 0.00 0.00 0.00 0.00
0.00 0.00 0.00 0.00 0.00 0.00 0.00 0.00 0.00 0.00 0.00 0.00 0.00 0.00 0.00 0.00 0.00 0.00 0.00 0.00 0.00 0.00 0.00 0.00 0.00 0.00 0.00 0.00 0.00 0.00 0.00 0.00 0.00 0.00 0.00 0.00 0.00 0.00 0.00 0.00 0.00 0.00 0.00 0.00
0.00 0.00 0.00 0.00 0.00 0.00 0.00 0.00 0.00 0.00 0.00 0.00 0.00 0.00 0.00 0.00 0.00 0.00 0.00 0.00 0.00 0.00 0.00 0.00 0.00 0.00 0.00 0.00 0.00 0.00 0.00 0.00 0.00 0.00 0.00 0.00 0.00 0.00 0.00 0.00 0.00 0.00 0.00 0.00
0.00 0.00 0.00 0.00 0.00 0.00 0.00 0.00 0.00 0.00 0.00 0.00 0.00 0.00 0.00 0.00 0.00 0.00 0.00 0.00 0.00 0.00 0.00 0.00 0.00 0.00 0.00 0.00 0.00 0.00 0.00 0.00 0.00 0.00 0.00 0.00 0.00 0.00 0.00 0.00 0.00 0.00 0.01 0.01
0.00 0.00 0.00 0.00 0.00 0.00 0.00 0.00 0.00 0.00 0.00 0.00 0.00 0.00 0.00 0.00 0.00 0.00 0.00 0.00 0.00 0.00 0.00 0.00 0.00 0.00 0.00 0.00 0.00 0.00 0.00 0.00 0.00 0.00 0.00 0.00 0.00 0.00 0.00 0.00 0.01 0.01 0.01 0.01
0.00 0.00 0.00 0.00 0.00 0.00 0.00 0.00 0.00 0.00 0.00 0.00 0.00 0.00 0.00 0.00 0.00 0.00 0.00 0.00 0.00 0.00 0.00 0.00 0.00 0.00 0.00 0.00 0.00 0.00 0.00 0.00 0.00 0.00 0.00 0.00 0.00 0.00 0.00 0.01 0.01 0.01 0.01 0.01
0.00 0.00 0.00 0.00 0.00 0.00 0.00 0.00 0.00 0.00 0.00 0.00 0.00 0.00 0.00 0.00 0.00 0.00 0.00 0.00 0.00 0.00 0.00 0.00 0.00 0.00 0.00 0.00 0.00 0.00 0.00 0.00 0.00 0.00 0.00 0.00 0.00 0.00 0.01 0.01 0.01 0.01 0.01 0.01
0.00 0.00 0.00 0.00 0.00 0.00 0.00 0.00 0.00 0.00 0.00 0.00 0.00 0.00 0.00 0.00 0.00 0.00 0.00 0.00 0.00 0.00 0.00 0.00 0.00 0.00 0.00 0.00 0.00 0.00 0.00 0.00 0.00 0.00 0.00 0.00 0.00 0.01 0.01 0.01 0.01 0.01 0.01 0.01
0.00 0.00 0.00 0.00 0.00 0.00 0.00 0.00 0.00 0.00 0.00 0.00 0.00 0.00 0.00 0.00 0.00 0.00 0.00 0.00 0.00 0.00 0.00 0.00 0.00 0.00 0.00 0.00 0.00 0.00 0.00 0.00 0.00 0.00 0.00 0.01 0.01 0.01 0.02 0.02 0.01 0.01 0.01 0.01
0.00 0.00 0.00 0.00 0.00 0.00 0.00 0.00 0.00 0.00 0.00 0.00 0.00 0.00 0.00 0.00 0.00 0.00 0.00 0.00 0.00 0.00 0.00 0.00 0.00 0.00 0.00 0.00 0.00 0.00 0.00 0.00 0.00 0.01 0.01 0.01 0.01 0.02 0.02 0.03 0.02 0.02 0.01 0.02
0.00 0.00 0.00 0.00 0.00 0.00 0.00 0.00 0.00 0.00 0.00 0.00 0.00 0.00 0.00 0.00 0.00 0.00 0.00 0.00 0.00 0.00 0.00 0.00 0.00 0.00 0.00 0.00 0.00 0.00 0.00 0.00 0.00 0.01 0.01 0.01 0.02 0.02 0.02 0.03 0.02 0.02 0.01 0.02
0.00 0.00 0.00 0.00 0.00 0.00 0.00 0.00 0.00 0.00 0.00 0.00 0.00 0.00 0.00 0.00 0.00 0.00 0.00 0.00 0.00 0.00 0.00 0.00 0.00 0.00 0.00 0.00 0.00 0.00 0.00 0.00 0.01 0.01 0.01 0.01 0.01 0.01 0.02 0.03 0.03 0.02 0.02 0.02
0.00 0.00 0.00 0.00 0.00 0.00 0.00 0.00 0.00 0.00 0.00 0.00 0.00 0.00 0.00 0.00 0.00 0.00 0.00 0.00 0.00 0.00 0.00 0.00 0.00 0.00 0.00 0.00 0.00 0.00 0.00 0.01 0.01 0.01 0.01 0.01 0.01 0.02 0.02 0.03 0.03 0.03 0.03 0.02
0.00 0.00 0.00 0.00 0.00 0.00 0.00 0.00 0.00 0.00 0.00 0.00 0.00 0.00 0.00 0.00 0.00 0.00 0.00 0.00 0.00 0.00 0.00 0.00 0.00 0.00 0.00 0.00 0.00 0.01 0.01 0.01 0.01 0.01 0.01 0.01 0.01 0.02 0.02 0.03 0.04 0.04 0.04 0.03
0.00 0.00 0.00 0.00 0.00 0.00 0.00 0.00 0.00 0.00 0.00 0.00 0.00 0.00 0.00 0.00 0.00 0.00 0.00 0.00 0.00 0.00 0.00 0.00 0.00 0.00 0.00 0.00 0.01 0.01 0.02 0.01 0.01 0.01 0.01 0.01 0.01 0.02 0.02 0.03 0.04 0.05 0.05 0.05
0.00 0.00 0.00 0.00 0.00 0.00 0.00 0.00 0.00 0.00 0.00 0.00 0.00 0.00 0.00 0.00 0.00 0.00 0.00 0.00 0.00 0.00 0.00 0.00 0.00 0.00 0.00 0.01 0.01 0.01 0.01 0.01 0.01 0.01 0.01 0.01 0.01 0.02 0.02 0.03 0.04 0.05 0.06 0.07
0.00 0.00 0.00 0.00 0.00 0.00 0.00 0.00 0.00 0.00 0.00 0.00 0.00 0.00 0.00 0.00 0.00 0.00 0.00 0.00 0.00 0.00 0.00 0.00 0.00 0.00 0.01 0.01 0.01 0.01 0.01 0.01 0.01 0.01 0.01 0.01 0.01 0.02 0.02 0.03 0.04 0.05 0.06 0.06
0.00 0.00 0.00 0.00 0.00 0.00 0.00 0.00 0.00 0.00 0.00 0.00 0.00 0.00 0.00 0.00 0.00 0.00 0.00 0.00 0.00 0.00 0.00 0.00 0.01 0.01 0.02 0.01 0.01 0.01 0.01 0.01 0.01 0.01 0.01 0.01 0.01 0.02 0.03 0.04 0.05 0.06 0.06 0.07
0.00 0.00 0.00 0.00 0.00 0.00 0.00 0.00 0.00 0.00 0.00 0.00 0.00 0.00 0.00 0.00 0.00 0.00 0.00 0.00 0.00 0.00 0.01 0.01 0.01 0.01 0.01 0.01 0.01 0.01 0.01 0.01 0.01 0.02 0.02 0.02 0.02 0.02 0.03 0.04 0.05 0.06 0.08 0.08
0.00 0.00 0.00 0.00 0.00 0.00 0.00 0.00 0.00 0.00 0.00 0.00 0.00 0.00 0.00 0.00 0.00 0.01 0.01 0.01 0.01 0.01 0.01 0.01 0.01 0.01 0.01 0.01 0.01 0.01 0.01 0.01 0.01 0.01 0.02 0.02 0.02 0.02 0.03 0.04 0.05 0.08 0.11 0.11
0.00 0.00 0.00 0.00 0.00 0.00 0.00 0.00 0.00 0.00 0.00 0.00 0.00 0.00 0.00 0.01 0.01 0.01 0.01 0.01 0.01 0.00 0.00 0.00 0.00 0.00 0.01 0.01 0.01 0.01 0.01 0.01 0.01 0.02 0.02 0.02 0.02 0.03 0.03 0.04 0.06 0.08 0.10 0.10
MSLP
1013.78 1013.99 1014.25 1014.57 1014.97 1015.47 1016.06 1016.70 1017.37 1018.02 1018.60 1019.08 1019.41 1019.60 1019.64 1019.55 1019.35 1019.07 1018.75 1018.41 1018.07 1017.73 1017.41 1017.08 1016.74 1016.40 1016.04 1015.66 1015.27 1014.88 1014.49 1014.11 1013.74 1013.38 1013.04 1012.70 1012.37 1012.05 1011.74 1011.46 1011.21 1011.01 1010.88 1010.80
1014.15 1014.34 1014.55 1014.80 1015.11 1015.51 1015.99 1016.54 1017.13 1017.73 1018.30 1018.79 1019.17 1019.43 1019.56 1019.56 1019.47 1019.29 1019.06 1018.79 1018.51 1018.22 1017.93 1017.63 1017.32 1017.00 1016.65 1016.28 1015.89 1015.48 1015.07 1014.65 1014.23 1013.81 1013.39 1012.97 1012.54 1012.12 1011.70 1011.31 1010.94 1010.62 1010.36 1010.18
1014.50 1014.65 1014.80 1014.96 1015.17 1015.45 1015.82 1016.26 1016.76 1017.30 1017.84 1018.34 1018.78 1019.11 1019.34 1019.46 1019.48 1019.42 1019.28 1019.10 1018.88 1018.64 1018.38 1018.11 1017.82 1017.50 1017.16 1016.80 1016.41 1016.00 1015.58 1015.13 1014.68 1014.21 1013.72 1013.22 1012.71 1012.18 1011.66 1011.15 1010.67 1010.22 1009.84 1009.53
1014.70 1014.81 1014.89 1014.97 1015.08 1015.25 1015.50 1015.84 1016.26 1016.74 1017.27 1017.79 1018.28 1018.71 1019.05 1019.29 1019.43 1019.48 1019.45 1019.35 1019.19 1018.98 1018.75 1018.48 1018.19 1017.87 1017.53 1017.17 1016.78 1016.37 1015.93 1015.48 1015.00 1014.49 1013.96 1013.40 1012.81 1012.20 1011.59 1010.97 1010.37 1009.81 1009.31 1008.88
1014.69 1014.75 1014.76 1014.76 1014.79 1014.86 1015.03 1015.29 1015.66 1016.11 1016.64 1017.20 1017.76 1018.28 1018.73 1019.10 1019.36 1019.52 1019.57 1019.54 1019.42 1019.23 1019.00 1018.72 1018.41 1018.08 1017.72 1017.35 1016.96 1016.54 1016.11 1015.65 1015.15 1014.63 1014.06 1013.46 1012.82 1012.15 1011.45 1010.76 1010.07 1009.41 1008.80 1008.26
1014.42 1014.43 1014.40 1014.35 1014.32 1014.34 1014.46 1014.68 1015.03 1015.48 1016.03 1016.65 1017.28 1017.89 1018.45 1018.93 1019.29 1019.53 1019.66 1019.66 1019.56 1019.38 1019.12 1018.82 1018.48 1018.12 1017.74 1017.36 1016.96 1016.54 1016.11 1015.65 1015.15 1014.61 1014.03 1013.40 1012.73 1012.01 1011.27 1010.52 1009.77 1009.04 1008.35 1007.72
1013.91 1013.89 1013.83 1013.76 1013.72 1013.74 1013.86 1014.09 1014.46 1014.94 1015.54 1016.21 1016.91 1017.61 1018.25 1018.80 1019.23 1019.53 1019.69 1019.71 1019.61 1019.41 1019.13 1018.79 1018.42 1018.03 1017.63 1017.22 1016.82 1016.40 1015.97 1015.51 1015.02 1014.48 1013.89 1013.24 1012.55 1011.82 1011.05 1010.26 1009.48 1008.70 1007.97 1007.27
1013.24 1013.21 1013.15 1013.10 1013.09 1013.15 1013.32 1013.60 1014.02 1014.56 1015.22 1015.94 1016.70 1017.45 1018.14 1018.72 1019.19 1019.50 1019.66 1019.67 1019.55 1019.32 1019.01 1018.64 1018.24 1017.83 1017.42 1017.00 1016.59 1016.18 1015.75 1015.29 1014.79 1014.25 1013.65 1013.00 1012.30 1011.55 1010.78 1009.99 1009.19 1008.40 1007.64 1006.91
1012.50 1012.47 1012.45 1012.45 1012.52 1012.66 1012.91 1013.28 1013.77 1014.38 1015.09 1015.85 1016.64 1017.40 1018.10 1018.68 1019.13 1019.42 1019.56 1019.54 1019.39 1019.13 1018.79 1018.40 1017.99 1017.57 1017.15 1016.74 1016.33 1015.91 1015.48 1015.01 1014.50 1013.94 1013.33 1012.67 1011.96 1011.21 1010.45 1009.66 1008.88 1008.10 1007.33 1006.59
1011.77 1011.77 1011.80 1011.90 1012.06 1012.32 1012.68 1013.15 1013.73 1014.40 1015.15 1015.93 1016.71 1017.45 1018.10 1018.64 1019.03 1019.27 1019.36 1019.30 1019.12 1018.84 1018.49 1018.10 1017.69 1017.28 1016.87 1016.46 1016.05 1015.63 1015.18 1014.68 1014.14 1013.56 1012.92 1012.23 1011.51 1010.77 1010.01 1009.25 1008.49 1007.73 1006.99 1006.26
1011.12 1011.16 1011.27 1011.47 1011.75 1012.14 1012.62 1013.19 1013.85 1014.57 1015.33 1016.10 1016.84 1017.52 1018.10 1018.55 1018.87 1019.04 1019.06 1018.96 1018.75 1018.46 1018.12 1017.74 1017.35 1016.96 1016.56 1016.16 1015.75 1015.30 1014.82 1014.28 1013.70 1013.06 1012.38 1011.66 1010.92 1010.17 1009.43 1008.69 1007.97 1007.25 1006.54 1005.83
1010.56 1010.66 1010.86 1011.16 1011.57 1012.08 1012.67 1013.34 1014.06 1014.81 1015.56 1016.29 1016.97 1017.56 1018.04 1018.39 1018.62 1018.71 1018.67 1018.53 1018.30 1018.01 1017.69 1017.33 1016.97 1016.60 1016.22 1015.81 1015.38 1014.89 1014.36 1013.77 1013.12 1012.41 1011.68 1010.92 1010.16 1009.41 1008.68 1007.97 1007.29 1006.62 1005.95 1005.28
1010.07 1010.23 1010.53 1010.94 1011.47 1012.09 1012.77 1013.51 1014.27 1015.03 1015.75 1016.43 1017.02 1017.51 1017.88 1018.14 1018.27 1018.29 1018.20 1018.03 1017.79 1017.51 1017.21 1016.88 1016.54 1016.18 1015.80 1015.38 1014.91 1014.37 1013.77 1013.11 1012.38 1011.61 1010.82 1010.02 1009.23 1008.48 1007.77 1007.10 1006.46 1005.84 1005.22 1004.58
1009.61 1009.85 1010.23 1010.74 1011.37 1012.08 1012.84 1013.62 1014.40 1015.15 1015.83 1016.44 1016.94 1017.34 1017.62 1017.78 1017.83 1017.79 1017.67 1017.48 1017.24 1016.97 1016.68 1016.38 1016.05 1015.69 1015.29 1014.84 1014.31 1013.72 1013.04 1012.30 1011.50 1010.67 1009.83 1009.00 1008.20 1007.46 1006.77 1006.13 1005.54 1004.96 1004.38 1003.77
1009.13 1009.45 1009.92 1010.52 1011.23 1012.01 1012.82 1013.63 1014.40 1015.12 1015.76 1016.30 1016.73 1017.04 1017.24 1017.33 1017.33 1017.25 1017.10 1016.90 1016.67 1016.41 1016.13 1015.83 1015.49 1015.12 1014.69 1014.19 1013.61 1012.94 1012.20 1011.39 1010.54 1009.66 1008.78 1007.94 1007.15 1006.42 1005.75 1005.15 1004.59 1004.04 1003.49 1002.90
1008.62 1009.02 1009.57 1010.25 1011.02 1011.84 1012.68 1013.49 1014.25 1014.94 1015.53 1016.01 1016.38 1016.63 1016.77 1016.82 1016.78 1016.68 1016.52 1016.32 1016.09 1015.84 1015.56 1015.25 1014.89 1014.48 1014.01 1013.46 1012.82 1012.10 1011.31 1010.46 1009.57 1008.67 1007.79 1006.95 1006.17 1005.46 1004.82 1004.24 1003.70 1003.16 1002.61 1002.01
1008.07 1008.55 1009.18 1009.92 1010.73 1011.58 1012.42 1013.22 1013.96 1014.61 1015.15 1015.59 1015.91 1016.12 1016.23 1016.26 1016.21 1016.10 1015.94 1015.75 1015.52 1015.26 1014.97 1014.64 1014.26 1013.81 1013.29 1012.69 1012.01 1011.26 1010.44 1009.57 1008.68 1007.80 1006.94 1006.12 1005.37 1004.68 1004.06 1003.48 1002.92 1002.36 1001.78 1001.14
1007.52 1008.07 1008.76 1009.54 1010.38 1011.23 1012.06 1012.84 1013.54 1014.16 1014.66 1015.06 1015.36 1015.55 1015.65 1015.67 1015.62 1015.52 1015.37 1015.18 1014.95 1014.69 1014.38 1014.02 1013.60 1013.12 1012.57 1011.94 1011.24 1010.47 1009.66 1008.81 1007.96 1007.11 1006.29 1005.51 1004.79 1004.11 1003.48 1002.88 1002.28 1001.66 1001.00 1000.29
1006.99 1007.62 1008.35 1009.15 1009.99 1010.83 1011.63 1012.38 1013.04 1013.62 1014.09 1014.47 1014.74 1014.92 1015.02 1015.05 1015.02 1014.93 1014.79 1014.60 1014.37 1014.10 1013.77 1013.39 1012.95 1012.44 1011.87 1011.24 1010.54 1009.80 1009.02 1008.22 1007.42 1006.63 1005.86 1005.13 1004.42 1003.75 1003.08 1002.42 1001.74 1001.02 1000.25 999.42
1006.54 1007.21 1007.96 1008.77 1009.59 1010.40 1011.16 1011.86 1012.49 1013.02 1013.47 1013.82 1014.08 1014.26 1014.37 1014.41 1014.38 1014.31 1014.18 1014.00 1013.77 1013.48 1013.15 1012.75 1012.30 1011.78 1011.21 1010.59 1009.93 1009.23 1008.51 1007.78 1007.05 1006.32 1005.61 1004.91 1004.21 1003.51 1002.79 1002.04 1001.24 1000.39 999.48 998.52
1006.17 1006.86 1007.61 1008.40 1009.19 1009.95 1010.67 1011.32 1011.89 1012.39 1012.80 1013.13 1013.38 1013.56 1013.67 1013.72 1013.72 1013.65 1013.53 1013.35 1013.12 1012.83 1012.49 1012.09 1011.63 1011.12 1010.57 1009.98 1009.37 1008.73 1008.08 1007.42 1006.76 1006.10 1005.44 1004.76 1004.05 1003.31 1002.51 1001.66 1000.74 999.74 998.68 997.58
1005.88 1006.57 1007.30 1008.05 1008.79 1009.49 1010.15 1010.74 1011.27 1011.72 1012.11 1012.41 1012.66 1012.83 1012.95 1013.00 1013.00 1012.95 1012.83 1012.66 1012.43 1012.14 1011.80 1011.40 1010.95 1010.46 1009.94 1009.39 1008.82 1008.25 1007.67 1007.08 1006.49 1005.88 1005.25 1004.58 1003.86 1003.07 1002.20 1001.25 1000.20 999.08 997.89 996.65
1005.66 1006.32 1007.01 1007.70 1008.38 1009.02 1009.61 1010.15 1010.62 1011.04 1011.39 1011.68 1011.90 1012.07 1012.19 1012.25 1012.26 1012.21 1012.10 1011.93 1011.70 1011.42 1011.07 1010.68 1010.25 1009.78 1009.29 1008.78 1008.26 1007.74 1007.22 1006.69 1006.15 1005.59 1004.98 1004.32 1003.59 1002.76 1001.84 1000.80 999.67 998.45 997.17 995.86
1005.48 1006.10 1006.73 1007.36 1007.96 1008.54 1009.07 1009.54 1009.97 1010.34 1010.66 1010.93 1011.14 1011.31 1011.42 1011.48 1011.49 1011.45 1011.34 1011.18 1010.95 1010.67 1010.34 1009.95 1009.53 1009.08 1008.61 1008.13 1007.65 1007.17 1006.69 1006.21 1005.71 1005.18 1004.60 1003.96 1003.22 1002.39 1001.44 1000.38 999.22 997.97 996.65 995.32
1005.33 1005.89 1006.46 1007.01 1007.55 1008.05 1008.51 1008.94 1009.31 1009.65 1009.94 1010.18 1010.38 1010.54 1010.66 1010.72 1010.73 1010.69 1010.59 1010.43 1010.21 1009.93 1009.60 1009.22 1008.81 1008.37 1007.91 1007.45 1006.99 1006.53 1006.08 1005.63 1005.16 1004.67 1004.12 1003.51 1002.81 1002.01 1001.10 1000.07 998.94 997.73 996.46 995.18
1005.19 1005.69 1006.18 1006.67 1007.13 1007.57 1007.97 1008.34 1008.67 1008.97 1009.23 1009.46 1009.65 1009.80 1009.91 1009.98 1010.00 1009.96 1009.87 1009.71 1009.50 1009.22 1008.89 1008.52 1008.10 1007.66 1007.21 1006.75 1006.30 1005.85 1005.42 1004.99 1004.55 1004.10 1003.60 1003.05 1002.42 1001.69 1000.87 999.94 998.92 997.82 996.68 995.51
1005.04 1005.48 1005.91 1006.33 1006.72 1007.10 1007.44 1007.76 1008.05 1008.31 1008.55 1008.76 1008.94 1009.08 1009.19 1009.26 1009.29 1009.26 1009.17 1009.03 1008.82 1008.54 1008.22 1007.84 1007.43 1006.98 1006.53 1006.07 1005.61 1005.17 1004.75 1004.34 1003.94 1003.53 1003.10 1002.63 1002.10 1001.50 1000.82 1000.05 999.19 998.27 997.30 996.32
Thickness
5731 5731 5731 5729 5727 5726 5728 5731 5726 5726 5720 5718 5715 5713 5711 5711 5712 5712 5712 5712 5713 5713 5714 5715 5715 5716 5716 5715 5715 5716 5714 5713 5711 5711 5710 5708 5707 5705 5704 5702 5701 5700 5699 5697
5723 5724 5726 5724 5726 5725 5724 5725 5725 5720 5716 5720 5717 5713 5710 5708 5707 5706 5705 5705 5706 5707 5707 5708 5709 5710 5709 5709 5710 5710 5708 5707 5706 5705 5704 5702 5702 5701 5700 5698 5697 5696 5695 5694
5721 5719 5719 5717 5727 5725 5723 5725 5724 5718 5718 5713 5709 5705 5704 5702 5702 5700 5699 5699 5700 5701 5701 5701 5703 5703 5702 5703 5703 5703 5702 5700 5699 5699 5697 5696 5696 5695 5693 5693 5692 5691 5690 5690
5719 5712 5700 5725 5728 5725 5720 5718 5721 5718 5715 5711 5706 5702 5700 5700 5698 5695 5694 5693 5693 5694 5694 5696 5696 5696 5696 5696 5695 5694 5693 5692 5692 5691 5690 5689 5689 5688 5687 5688 5687 5686 5686 5686
5714 5709 5714 5715 5719 5718 5715 5712 5716 5713 5709 5706 5704 5700 5697 5695 5692 5690 5688 5687 5686 5687 5687 5688 5687 5687 5687 5687 5686 5684 5682 5682 5683 5683 5682 5681 5680 5680 5680 5680 5680 5680 5680 5680
5709 5703 5705 5721 5722 5721 5716 5707 5713 5712 5706 5702 5699 5696 5695 5690 5686 5684 5681 5680 5679 5679 5679 5678 5677 5677 5677 5676 5675 5673 5672 5672 5673 5673 5672 5672 5672 5672 5673 5672 5671 5672 5673 5674
5706 5706 5717 5719 5717 5714 5702 5712 5713 5710 5705 5700 5697 5698 5692 5685 5680 5677 5674 5672 5671 5670 5668 5667 5667 5667 5666 5665 5663 5662 5661 5661 5661 5662 5662 5663 5663 5663 5663 5663 5662 5663 5664 5665
5704 5700 5708 5711 5709 5709 5713 5713 5710 5705 5702 5697 5693 5687 5682 5677 5673 5669 5667 5664 5662 5661 5659 5657 5656 5656 5654 5652 5651 5651 5650 5650 5650 5650 5650 5651 5650 5650 5651 5650 5650 5651 5652 5655
5711 5709 5709 5709 5710 5709 5708 5705 5702 5698 5694 5688 5682 5677 5673 5669 5665 5662 5659 5656 5653 5651 5649 5648 5646 5644 5641 5640 5639 5638 5638 5637 5637 5637 5637 5636 5636 5636 5636 5636 5636 5638 5639 5642
5698 5700 5699 5699 5700 5699 5698 5696 5693 5690 5685 5680 5674 5670 5665 5661 5657 5653 5650 5647 5644 5642 5639 5638 5635 5633 5630 5628 5626 5626 5625 5624 5623 5623 5622 5621 5619 5620 5620 5620 5620 5621 5624 5627
5693 5694 5689 5689 5691 5690 5688 5686 5683 5679 5675 5670 5666 5661 5657 5653 5649 5645 5641 5638 5634 5631 5627 5625 5623 5620 5617 5615 5613 5611 5611 5609 5608 5606 5604 5603 5603 5602 5602 5603 5602 5602 5606 5609
5691 5694 5691 5687 5685 5682 5677 5674 5672 5668 5664 5660 5656 5652 5648 5644 5639 5635 5630 5627 5623 5619 5615 5613 5610 5607 5603 5600 5597 5595 5594 5592 5590 5587 5585 5585 5585 5588 5589 5586 5588 5587 5587 5589
5689 5685 5684 5680 5676 5672 5669 5665 5662 5658 5654 5649 5646 5642 5637 5633 5628 5623 5619 5615 5611 5607 5603 5600 5596 5592 5589 5585 5581 5578 5576 5574 5571 5569 5567 5566 5567 5568 5572 5577 5576 5575 5576 5577
5673 5671 5667 5666 5663 5661 5658 5655 5651 5647 5644 5639 5635 5630 5626 5621 5617 5612 5608 5604 5600 5595 5591 5587 5582 5578 5574 5570 5565 5563 5560 5556 5553 5551 5549 5549 5549 5550 5552 5556 5561 5566 5566 5566
5661 5661 5660 5657 5654 5650 5646 5643 5638 5635 5631 5627 5623 5618 5614 5609 5605 5601 5596 5591 5586 5582 5577 5573 5568 5563 5559 5554 5550 5548 5544 5541 5538 5535 5533 5532 5533 5533 5535 5538 5542 5547 5551 5554
5651 5649 5647 5644 5641 5638 5634 5631 5627 5624 5620 5616 5611 5607 5602 5598 5593 5589 5584 5578 5573 5569 5564 5558 5554 5549 5544 5539 5536 5533 5530 5526 5520 5519 5518 5518 5518 5518 5520 5523 5526 5530 5535 5538
5640 5637 5634 5631 5629 5626 5623 5620 5617 5614 5609 5605 5600 5595 5590 5585 5581 5576 5571 5565 5560 5556 5550 5545 5541 5536 5531 5526 5522 5519 5517 5514 5509 5507 5506 5504 5503 5503 5505 5507 5511 5515 5520 5524
5633 5631 5628 5625 5620 5616 5612 5609 5605 5601 5597 5593 5588 5582 5577 5573 5568 5564 5559 5554 5548 5543 5538 5533 5528 5522 5517 5513 5509 5506 5503 5501 5498 5496 5493 5492 5491 5491 5492 5495 5498 5501 5507 5511
5619 5617 5615 5612 5608 5604 5601 5597 5593 5589 5585 5580 5574 5570 5565 5561 5556 5552 5547 5542 5536 5532 5528 5522 5514 5508 5505 5502 5495 5492 5491 5489 5487 5485 5482 5481 5480 5481 5482 5484 5487 5490 5493 5498
5605 5602 5600 5597 5594 5591 5588 5584 5580 5575 5571 5566 5561 5557 5553 5549 5544 5539 5534 5529 5524 5519 5514 5509 5502 5498 5495 5491 5484 5482 5480 5477 5476 5474 5473 5472 5471 5472 5473 5475 5477 5479 5483 5487
5591 5588 5585 5582 5580 5577 5574 5570 5566 5562 5557 5552 5547 5544 5540 5536 5531 5526 5521 5518 5514 5506 5500 5494 5489 5486 5483 5478 5473 5471 5470 5468 5466 5465 5464 5463 5463 5464 5465 5467 5468 5471 5474 5478
5577 5575 5572 5569 5566 5563 5560 5557 5553 5548 5543 5538 5534 5530 5526 5522 5518 5514 5510 5505 5501 5493 5487 5484 5480 5475 5470 5465 5464 5463 5461 5459 5457 5456 5455 5455 5455 5456 5457 5458 5460 5462 5466 5469
5563 5560 5558 5555 5552 5550 5546 5542 5538 5534 5530 5526 5522 5518 5514 5510 5506 5501 5499 5495 5489 5482 5476 5473 5468 5462 5457 5455 5456 5455 5454 5452 5450 5448 5447 5447 5448 5449 5450 5451 5453 5455 5457 5461
5548 5546 5543 5540 5537 5534 5532 5529 5525 5521 5517 5513 5509 5504 5500 5497 5494 5490 5486 5481 5475 5468 5465 5462 5456 5452 5448 5448 5448 5447 5445 5443 5442 5440 5440 5440 5441 5442 5442 5444 5446 5448 5451 5454
5532 5530 5528 5525 5523 5521 5518 5515 5512 5508 5503 5500 5497 5493 5488 5484 5481 5478 5474 5469 5464 5457 5455 5454 5449 5445 5442 5442 5441 5439 5437 5435 5434 5433 5433 5433 5434 5435 5436 5438 5440 5442 5445 5448
5517 5515 5513 5511 5509 5506 5504 5501 5498 5495 5491 5489 5486 5482 5477 5473 5469 5465 5461 5457 5453 5448 5445 5444 5442 5439 5437 5435 5433 5431 5429 5428 5428 5427 5427 5427 5428 5430 5431 5433 5436 5438 5440 5444
5502 5500 5497 5496 5493 5490 5488 5486 5483 5481 5478 5475 5473 5470 5466 5462 5458 5454 5449 5446 5443 5441 5438 5436 5434 5431 5429 5427 5425 5424 5423 5423 5422 5421 5422 5423 5424 5426 5427 5428 5430 5433 5436 5440